Main page
METAR-TAF:

METAR-TAF

Airports :

Madrid-Cuatro Vientos, Spain

Cuatro Vientos Airport

latitude: 40-23N, longitude: 003-47W, elevation: 690 m

Current weather observation

The report was made 38 minutes ago, at 15:00 UTC
Calm wind
Temperature 17°C
Humidity 42%
Pressure 1027 hPa
Visibility 10 km or more
no clouds below 1500 m and no cumulonimbus

METAR: LEVS 231500Z 00000KT CAVOK 17/04 Q1027

Time: 16:38 (15:38 UTC)

Forecast

The report was made 1 hour and 38 minutes ago, at 14:00 UTC
Forecast valid from 23 at 15 UTC to 23 at 24 UTC
Wind 5 kt from variable directions
Visibility 10 km or more
no clouds below 1500 m and no cumulonimbus

TAF: LEVS 231400Z 2315/2324 VRB05KT CAVOK

Weather observations and forecasts of more than 4000 airports (METAR and TAF reports).

The available stations are represented by yellow and red dots on the map.

Hover mouse over dot to see the name of the station.

Then click to see weather observations and forecasts.

To change the map : click on the green buttons with a black cross to zoom in, on the green button with a dash to zoom out, or on the green arrows for adjacent maps.


METAR-TAF: